TimePDT,TemperatureF,Dew PointF,Humidity,Sea Level PressureIn,VisibilityMPH,Wind Direction,Wind SpeedMPH,Gust SpeedMPH,PrecipitationIn,Events,Conditions,WindDirDegrees,DateUTC
12:56 AM,54.0,52.0,93,30.03,10.0,SSE,3.5,-,N/A,,Clear,150,2013-07-26 07:56:00
1:56 AM,54.0,51.1,90,30.04,10.0,SSE,3.5,-,N/A,,Clear,160,2013-07-26 08:56:00
2:56 AM,54.0,51.1,90,30.03,10.0,SSE,4.6,-,N/A,,Partly Cloudy,160,2013-07-26 09:56:00
3:56 AM,54.0,51.1,90,30.03,10.0,Calm,Calm,-,N/A,,Clear,0,2013-07-26 10:56:00
4:56 AM,53.1,50.0,89,30.04,9.0,Calm,Calm,-,N/A,,Clear,0,2013-07-26 11:56:00
5:56 AM,52.0,50.0,93,30.04,10.0,Calm,Calm,-,N/A,,Partly Cloudy,0,2013-07-26 12:56:00
6:11 AM,51.8,50.0,94,30.04,9.0,Calm,Calm,-,N/A,,Mostly Cloudy,0,2013-07-26 13:11:00
6:56 AM,54.0,51.1,90,30.06,7.0,South,4.6,-,N/A,,Overcast,170,2013-07-26 13:56:00
7:56 AM,55.0,52.0,89,30.07,8.0,South,6.9,-,N/A,,Mostly Cloudy,180,2013-07-26 14:56:00
8:56 AM,55.9,52.0,87,30.09,8.0,South,8.1,-,N/A,,Scattered Clouds,180,2013-07-26 15:56:00
9:56 AM,57.0,52.0,83,30.09,8.0,South,8.1,-,N/A,,Clear,180,2013-07-26 16:56:00
10:56 AM,57.9,52.0,81,30.09,9.0,South,8.1,-,N/A,,Clear,170,2013-07-26 17:56:00
11:56 AM,59.0,52.0,78,30.11,9.0,South,6.9,-,N/A,,Clear,180,2013-07-26 18:56:00
12:56 PM,60.1,52.0,75,30.10,9.0,South,8.1,-,N/A,,Clear,180,2013-07-26 19:56:00
1:56 PM,60.1,52.0,75,30.10,8.0,South,11.5,-,N/A,,Clear,180,2013-07-26 20:56:00
2:56 PM,57.9,51.1,78,30.10,10.0,South,9.2,-,N/A,,Clear,180,2013-07-26 21:56:00
3:56 PM,57.9,52.0,81,30.09,10.0,South,8.1,-,N/A,,Clear,190,2013-07-26 22:56:00
4:56 PM,57.0,52.0,83,30.08,10.0,South,8.1,-,N/A,,Clear,190,2013-07-26 23:56:00
5:30 PM,55.4,51.8,88,30.07,10.0,South,8.1,-,N/A,,Partly Cloudy,180,2013-07-27 00:30:00
5:56 PM,57.0,52.0,83,30.07,10.0,South,4.6,-,N/A,,Clear,180,2013-07-27 00:56:00
6:56 PM,59.0,51.1,75,30.06,10.0,SSE,6.9,-,N/A,,Clear,160,2013-07-27 01:56:00
7:56 PM,57.0,51.1,81,30.05,10.0,SE,4.6,-,N/A,,Clear,130,2013-07-27 02:56:00
8:56 PM,53.1,51.1,93,30.06,10.0,SSE,4.6,-,N/A,,Clear,160,2013-07-27 03:56:00
9:25 PM,53.6,51.8,94,30.06,4.0,South,5.8,-,N/A,,Scattered Clouds,180,2013-07-27 04:25:00
9:33 PM,51.8,51.8,100,30.07,3.0,South,5.8,-,N/A,,Mostly Cloudy,170,2013-07-27 04:33:00
9:38 PM,51.8,51.8,100,30.07,1.8,South,4.6,-,N/A,,Mostly Cloudy,180,2013-07-27 04:38:00
9:56 PM,52.0,52.0,100,30.08,1.5,South,4.6,-,N/A,,Overcast,180,2013-07-27 04:56:00
10:11 PM,51.8,51.8,100,30.07,1.0,South,4.6,-,N/A,,Mist,190,2013-07-27 05:11:00
10:56 PM,52.0,51.1,97,30.07,1.8,SE,3.5,-,N/A,,Overcast,130,2013-07-27 05:56:00
11:25 PM,51.8,51.8,100,30.06,2.5,SSE,3.5,-,N/A,,Overcast,160,2013-07-27 06:25:00
11:32 PM,51.8,51.8,100,30.06,3.0,SSE,3.5,-,N/A,,Overcast,160,2013-07-27 06:32:00
11:43 PM,51.8,51.8,100,30.06,1.5,Calm,Calm,-,N/A,,Overcast,0,2013-07-27 06:43:00
11:48 PM,51.8,51.8,100,30.06,0.8,South,3.5,-,N/A,,Overcast,170,2013-07-27 06:48:00
11:56 PM,51.1,51.1,100,30.06,0.5,South,3.5,-,N/A,Fog,Fog,170,2013-07-27 06:56:00